Location: ????????
(38.4362°N, 22.8767°E)
Time: 17:13:42
(UTC+00:00)

Lacrosse 5 rocket - Visible Passes

Search period start: 18 January 2026 00:00
Search period end: 28 January 2026 00:00
Orbit: 405 x 485 km, 57.0° (Epoch: 17 January)

Date Brightness Start Highest point End Pass type
(mag) Time Alt. Az. Time Alt. Az. Time Alt. Az.
21 Jan 3.3 05:04:29 10° NNW 05:07:13 19° NE 05:09:55 10° E visible
22 Jan 3.6 04:26:02 10° N 04:28:08 14° NNE 04:30:14 10° ENE visible
23 Jan 3.8 03:47:53 10° N 03:49:00 11° NNE 03:50:06 10° NE visible
24 Jan 2.1 04:44:01 10° NNW 04:47:36 40° NE 04:51:07 10° ESE visible
25 Jan 2.7 04:06:22 17° N 04:08:31 28° NE 04:11:47 10° E visible
26 Jan 3.2 03:29:02 20° NNE 03:29:23 21° NE 03:32:15 10° E visible
26 Jan 1.5 05:02:51 10° NW 05:06:27 45° SW 05:10:00 10° SSE visible
27 Jan 4.2 02:51:44 13° ENE 02:51:44 13° ENE 02:52:29 10° ENE visible
27 Jan 1.0 04:25:16 23° NW 04:27:28 73° SW 04:31:09 10° SE visible
